| time (UTC) | temp F | wind direction | speed MPH | gust MPH | rain 1hr in | rain 24hr in | rain mn in | humidity % | barometer mb |
| 20260505223106 | 53 | 307 | 8.0 | 0.0 | 0.00 | 0.00 | 0.02 | 100 | 1005.6 |
| 20260505221543 | 55 | 304 | 8.0 | 0.0 | 0.00 | 0.00 | 0.02 | 100 | 1005.2 |
| 20260505220041 | 57 | 286 | 7.0 | 0.0 | 0.00 | 0.00 | 0.02 | 100 | 1004.7 |
| 20260505214526 | 58 | 298 | 6.0 | 0.0 | 0.00 | 0.00 | 0.02 | 100 | 1004.2 |
| 20260505213017 | 57 | 293 | 5.0 | 0.0 | 0.00 | 0.00 | 0.02 | 100 | 1003.8 |
| 20260505211506 | 56 | 299 | 5.0 | 0.0 | 0.00 | 0.00 | 0.02 | 100 | 1003.7 |
| 20260505210057 | 55 | 302 | 5.0 | 0.0 | 0.00 | 0.00 | 0.02 | 100 | 1003.6 |
| 20260505204649 | 55 | 301 | 6.0 | 0.0 | 0.00 | 0.00 | 0.02 | 100 | 1003.5 |
| 20260505203046 | 54 | 301 | 5.0 | 0.0 | 0.00 | 0.00 | 0.02 | 100 | 1003.4 |
| 20260505201528 | 55 | 307 | 8.0 | 0.0 | 0.00 | 0.00 | 0.02 | 100 | 1003.0 |
| 20260505200119 | 55 | 320 | 5.0 | 0.0 | 0.00 | 0.00 | 0.02 | 100 | 1002.8 |
| 20260505194615 | 55 | 292 | 4.0 | 0.0 | 0.00 | 0.00 | 0.02 | 100 | 1002.8 |
| 20260505193101 | 55 | 315 | 2.0 | 0.0 | 0.00 | 0.00 | 0.02 | 3 | 1002.6 |
| 20260505191552 | 57 | 303 | 4.0 | 0.0 | 0.00 | 0.00 | 0.02 | 25 | 1002.7 |
| 20260505190045 | 61 | 301 | 5.0 | 0.0 | 0.00 | 0.00 | 0.02 | 29 | 1002.5 |
| 20260505184534 | 61 | 307 | 5.0 | 0.0 | 0.00 | 0.00 | 0.02 | 20 | 1002.4 |
| 20260505183025 | 60 | 304 | 5.0 | 0.0 | 0.00 | 0.00 | 0.02 | 10 | 1002.4 |
| 20260505181617 | 58 | 325 | 6.0 | 0.0 | 0.00 | 0.00 | 0.02 | 100 | 1002.4 |
| 20260505174600 | 62 | 292 | 7.0 | 0.0 | 0.00 | 0.00 | 0.02 | 29 | 1001.9 |
| 20260505173051 | 61 | 325 | 8.0 | 0.0 | 0.00 | 0.00 | 0.02 | 13 | 1001.8 |
| 20260505171540 | 58 | 293 | 7.0 | 0.0 | 0.00 | 0.00 | 0.02 | 7 | 1001.8 |
| 20260505170132 | 59 | 288 | 7.0 | 0.0 | 0.00 | 0.00 | 0.02 | 10 | 1001.9 |
| 20260505164543 | 59 | 316 | 6.0 | 0.0 | 0.00 | 0.00 | 0.02 | 16 | 1001.8 |
| 20260505163014 | 68 | 317 | 6.0 | 0.0 | 0.00 | 0.00 | 0.02 | 52 | 1001.5 |
| 20260505161506 | 73 | 292 | 4.0 | 0.0 | 0.00 | 0.00 | 0.02 | 51 | 1001.1 |
| 20260505153050 | 73 | 247 | 5.0 | 0.0 | 0.00 | 0.00 | 0.02 | 51 | 1000.8 |
| 20260505151534 | 73 | 248 | 7.0 | 0.0 | 0.00 | 0.00 | 0.02 | 51 | 1001.0 |
| 20260505124600 | 69 | 244 | 8.0 | 0.0 | 0.00 | 0.00 | 0.02 | 47 | 1000.5 |
| 20260505123100 | 68 | 224 | 7.0 | 0.0 | 0.00 | 0.00 | 0.02 | 42 | 1000.4 |
| 20260505121543 | 67 | 198 | 8.0 | 0.0 | 0.00 | 0.00 | 0.02 | 41 | 1000.5 |
| 20260505120135 | 67 | 229 | 8.0 | 0.0 | 0.00 | 0.00 | 0.02 | 39 | 1000.6 |
| 20260505114533 | 66 | 225 | 9.0 | 0.0 | 0.00 | 0.00 | 0.02 | 38 | 1000.5 |
| 20260505113115 | 66 | 219 | 10.0 | 0.0 | 0.00 | 0.00 | 0.02 | 35 | 1000.4 |
| 20260505111505 | 65 | 206 | 9.0 | 0.0 | 0.00 | 0.00 | 0.02 | 30 | 1000.2 |
| 20260505110105 | 64 | 209 | 10.0 | 0.0 | 0.00 | 0.00 | 0.02 | 25 | 1000.1 |
| 20260505101629 | 64 | 205 | 11.0 | 0.0 | 0.00 | 0.00 | 0.02 | 21 | 999.6 |
| 20260505100123 | 63 | 204 | 10.0 | 0.0 | 0.00 | 0.00 | 0.02 | 8 | 999.7 |
| 20260505094613 | 62 | 199 | 9.0 | 0.0 | 0.00 | 0.00 | 0.02 | 100 | 999.7 |
| 20260505093001 | 62 | 203 | 6.0 | 0.0 | 0.00 | 0.00 | 0.02 | 100 | 999.8 |
| 20260505091558 | 62 | 198 | 7.0 | 0.0 | 0.00 | 0.00 | 0.02 | 100 | 1000.1 |
| 20260505090054 | 63 | 203 | 7.0 | 0.0 | 0.00 | 0.00 | 0.02 | 1 | 1000.4 |
| 20260505084635 | 62 | 196 | 9.0 | 0.0 | 0.00 | 0.00 | 0.02 | 100 | 1000.3 |
| 20260505083035 | 62 | 202 | 7.0 | 0.0 | 0.00 | 0.00 | 0.02 | 100 | 1000.3 |
| 20260505081514 | 63 | 192 | 6.0 | 0.0 | 0.00 | 0.00 | 0.02 | 100 | 1000.4 |
| 20260505080004 | 65 | 225 | 8.0 | 0.0 | 0.00 | 0.00 | 0.01 | 28 | 1000.5 |
| 20260505074610 | 65 | 218 | 7.0 | 0.0 | 0.00 | 0.00 | 0.00 | 34 | 1000.6 |
| 20260505073053 | 66 | 215 | 7.0 | 0.0 | 0.00 | 0.00 | 0.00 | 44 | 1000.7 |
| 20260505071543 | 67 | 211 | 7.0 | 0.0 | 0.00 | 0.00 | 0.00 | 49 | 1000.6 |
| 20260505070045 | 66 | 234 | 8.0 | 0.0 | 0.00 | 0.00 | 0.00 | 50 | 1000.4 |
| 20260505064538 | 66 | 208 | 7.0 | 0.0 | 0.00 | 0.00 | 0.00 | 51 | 1000.3 |
| 20260505063035 | 66 | 202 | 7.0 | 0.0 | 0.00 | 0.00 | 0.00 | 52 | 1000.3 |
| 20260505061629 | 66 | 229 | 7.0 | 0.0 | 0.00 | 0.00 | 0.00 | 53 | 1000.2 |
| 20260505060018 | 66 | 207 | 7.0 | 0.0 | 0.00 | 0.00 | 0.00 | 52 | 1000.3 |
| 20260505054518 | 66 | 209 | 8.0 | 0.0 | 0.00 | 0.00 | 0.00 | 52 | 1000.2 |
| 20260505053104 | 66 | 202 | 6.0 | 0.0 | 0.00 | 0.00 | 0.00 | 52 | 1000.2 |
| 20260505051558 | 67 | 196 | 6.0 | 0.0 | 0.00 | 0.00 | 0.00 | 50 | 1000.4 |
| 20260505041627 | 63 | 198 | 3.0 | 0.0 | 0.00 | 0.00 | 0.00 | 51 | 1000.6 |
| 20260505040017 | 60 | 206 | 4.0 | 0.0 | 0.00 | 0.00 | 0.00 | 44 | 1000.4 |
| 20260505034508 | 60 | 201 | 4.0 | 0.0 | 0.00 | 0.00 | 0.00 | 43 | 1000.5 |
| 20260505033059 | 61 | 204 | 3.0 | 0.0 | 0.00 | 0.00 | 0.00 | 51 | 1000.4 |
| 20260505031550 | 58 | 203 | 3.0 | 0.0 | 0.00 | 0.00 | 0.00 | 35 | 1000.6 |
| 20260505030043 | 58 | 203 | 3.0 | 0.0 | 0.00 | 0.00 | 0.00 | 5 | 1000.6 |
| 20260505024552 | 60 | 203 | 2.0 | 0.0 | 0.00 | 0.00 | 0.00 | 35 | 1000.7 |
| 20260505023027 | 61 | 203 | 2.0 | 0.0 | 0.00 | 0.00 | 0.00 | 51 | 1000.8 |
| 20260505021528 | 61 | 203 | 2.0 | 0.0 | 0.00 | 0.00 | 0.00 | 54 | 1001.0 |
| 20260505020005 | 62 | 237 | 3.0 | 0.0 | 0.00 | 0.00 | 0.00 | 55 | 1001.0 |
| 20260505014555 | 64 | 279 | 0.0 | 0.0 | 0.00 | 0.00 | 0.00 | 46 | 1000.9 |
| 20260505013045 | 64 | 279 | 1.0 | 0.0 | 0.00 | 0.00 | 0.00 | 46 | 1000.9 |
| 20260505011638 | 63 | 279 | 0.0 | 0.0 | 0.00 | 0.00 | 0.00 | 49 | 1000.9 |
| 20260505010028 | 64 | 279 | 0.0 | 0.0 | 0.00 | 0.00 | 0.00 | 52 | 1000.7 |
| 20260505004627 | 65 | 279 | 0.0 | 0.0 | 0.00 | 0.00 | 0.00 | 46 | 1000.8 |
| 20260505003010 | 66 | 279 | 0.0 | 0.0 | 0.00 | 0.00 | 0.00 | 43 | 1000.7 |
| 20260505001602 | 68 | 279 | 1.0 | 0.0 | 0.00 | 0.00 | 0.00 | 45 | 1000.8 |
| 20260505000051 | 70 | 279 | 1.0 | 0.0 | 0.00 | 0.00 | 0.00 | 40 | 1000.7 |
| 20260504234543 | 71 | 279 | 2.0 | 0.0 | 0.00 | 0.00 | 0.00 | 38 | 1000.7 |
| 20260504233041 | 73 | 279 | 1.0 | 0.0 | 0.00 | 0.00 | 0.00 | 35 | 1000.5 |
| 20260504231624 | 72 | 279 | 1.0 | 0.0 | 0.00 | 0.00 | 0.00 | 40 | 1000.5 |
| 20260504230115 | 72 | 279 | 1.0 | 0.0 | 0.00 | 0.00 | 0.00 | 38 | 1000.3 |
| 20260504224508 | 71 | 279 | 0.0 | 0.0 | 0.00 | 0.00 | 0.00 | 40 | 1000.4 |